Time,TemperatureF,DewpointF,PressureIn,WindDirection,WindDirectionDegrees,WindSpeedMPH,WindSpeedGustMPH,Humidity,HourlyPrecipIn,Conditions,Clouds,dailyrainin,SoftwareType,DateUTC
2013-01-29 00:10:00,19.4,16.4,30.02,WSW,238,0.0,0.0,88,0.00,,,0.00,Wunderground v.1.15,2013-01-29 05:10:00,
2013-01-29 00:20:00,19.2,16.5,30.02,WSW,238,0.0,0.0,89,0.00,,,0.00,Wunderground v.1.15,2013-01-29 05:20:00,
2013-01-29 00:30:00,19.4,16.7,30.02,WSW,238,0.0,0.0,89,0.00,,,0.00,Wunderground v.1.15,2013-01-29 05:30:00,
2013-01-29 00:40:00,19.2,16.5,30.02,WSW,238,0.0,0.0,89,0.00,,,0.00,Wunderground v.1.15,2013-01-29 05:40:00,
2013-01-29 00:50:00,19.2,16.5,30.02,WSW,238,0.0,0.0,89,0.00,,,0.00,Wunderground v.1.15,2013-01-29 05:50:00,
2013-01-29 01:00:00,19.1,16.4,30.02,WSW,238,0.0,0.0,89,0.00,,,0.00,Wunderground v.1.15,2013-01-29 06:00:00,
2013-01-29 01:10:00,18.9,16.2,30.03,WSW,238,0.0,0.0,89,0.00,,,0.00,Wunderground v.1.15,2013-01-29 06:10:00,
2013-01-29 01:20:00,18.9,16.2,30.02,WSW,238,0.0,0.0,89,0.00,,,0.00,Wunderground v.1.15,2013-01-29 06:20:00,
2013-01-29 01:30:00,18.8,16.4,30.02,WSW,238,0.0,0.0,90,0.00,,,0.00,Wunderground v.1.15,2013-01-29 06:30:00,
2013-01-29 01:40:00,18.9,16.5,30.03,WSW,238,0.0,0.0,90,0.00,,,0.00,Wunderground v.1.15,2013-01-29 06:40:00,
2013-01-29 01:50:00,18.9,16.5,30.03,WSW,238,0.0,0.0,90,0.00,,,0.00,Wunderground v.1.15,2013-01-29 06:50:00,
2013-01-29 02:00:00,18.9,16.5,30.03,WSW,238,1.0,2.0,90,0.00,,,0.00,Wunderground v.1.15,2013-01-29 07:00:00,
2013-01-29 02:10:00,19.1,16.4,30.05,WSW,238,1.0,1.0,89,0.00,,,0.00,Wunderground v.1.15,2013-01-29 07:10:00,
2013-01-29 02:20:00,19.1,16.4,30.04,WSW,238,0.0,0.0,89,0.00,,,0.00,Wunderground v.1.15,2013-01-29 07:20:00,
2013-01-29 02:30:00,19.1,16.4,30.04,WSW,238,0.0,0.0,89,0.00,,,0.00,Wunderground v.1.15,2013-01-29 07:30:00,
2013-01-29 02:40:00,19.1,16.4,30.04,WSW,238,0.0,0.0,89,0.00,,,0.00,Wunderground v.1.15,2013-01-29 07:40:00,
2013-01-29 02:50:00,19.1,16.4,30.03,WSW,238,0.0,0.0,89,0.00,,,0.00,Wunderground v.1.15,2013-01-29 07:50:00,
2013-01-29 03:00:00,18.9,16.2,30.03,WSW,238,0.0,0.0,89,0.00,,,0.00,Wunderground v.1.15,2013-01-29 08:00:00,
2013-01-29 03:10:00,18.8,16.1,30.02,WSW,238,0.0,0.0,89,0.00,,,0.00,Wunderground v.1.15,2013-01-29 08:10:00,
2013-01-29 03:20:00,18.8,16.1,30.03,WSW,238,0.0,0.0,89,0.00,,,0.00,Wunderground v.1.15,2013-01-29 08:20:00,
2013-01-29 03:30:00,18.6,15.9,30.03,WSW,238,0.0,0.0,89,0.00,,,0.00,Wunderground v.1.15,2013-01-29 08:30:00,
2013-01-29 03:40:00,18.4,15.7,30.03,WSW,238,0.0,0.0,89,0.00,,,0.00,Wunderground v.1.15,2013-01-29 08:40:00,
2013-01-29 03:50:00,18.3,15.6,30.03,WSW,238,0.0,0.0,89,0.00,,,0.00,Wunderground v.1.15,2013-01-29 08:50:00,
2013-01-29 04:00:00,18.0,15.3,30.03,WSW,238,0.0,0.0,89,0.00,,,0.00,Wunderground v.1.15,2013-01-29 09:00:00,
2013-01-29 04:10:00,17.7,15.3,30.04,WSW,238,0.0,0.0,90,0.00,,,0.00,Wunderground v.1.15,2013-01-29 09:10:00,
2013-01-29 04:20:00,17.7,15.3,30.04,WSW,238,0.0,0.0,90,0.00,,,0.00,Wunderground v.1.15,2013-01-29 09:20:00,
2013-01-29 04:30:00,17.8,15.6,30.04,WSW,238,0.0,0.0,91,0.00,,,0.00,Wunderground v.1.15,2013-01-29 09:30:00,
2013-01-29 04:40:00,17.5,15.1,30.05,WSW,238,0.0,0.0,90,0.00,,,0.00,Wunderground v.1.15,2013-01-29 09:40:00,
2013-01-29 04:50:00,17.2,15.0,30.05,WSW,238,0.0,0.0,91,0.00,,,0.00,Wunderground v.1.15,2013-01-29 09:50:00,
2013-01-29 05:00:00,16.7,14.3,30.05,WSW,238,0.0,0.0,90,0.00,,,0.00,Wunderground v.1.15,2013-01-29 10:00:00,
2013-01-29 05:10:00,16.4,14.2,30.05,WSW,238,0.0,0.0,91,0.00,,,0.00,Wunderground v.1.15,2013-01-29 10:10:00,
2013-01-29 05:20:00,16.5,14.3,30.05,WSW,238,0.0,0.0,91,0.00,,,0.00,Wunderground v.1.15,2013-01-29 10:20:00,
2013-01-29 05:30:00,15.7,13.3,30.05,WSW,238,0.0,0.0,90,0.00,,,0.00,Wunderground v.1.15,2013-01-29 10:30:00,
2013-01-29 05:40:00,15.9,13.7,30.05,WSW,238,0.0,0.0,91,0.00,,,0.00,Wunderground v.1.15,2013-01-29 10:40:00,
2013-01-29 05:50:00,16.1,13.9,30.06,WSW,238,0.0,0.0,91,0.00,,,0.00,Wunderground v.1.15,2013-01-29 10:50:00,
2013-01-29 06:00:00,16.1,13.9,30.06,WSW,238,0.0,0.0,91,0.00,,,0.00,Wunderground v.1.15,2013-01-29 11:00:00,
2013-01-29 06:10:00,16.4,14.2,30.06,WSW,238,0.0,1.0,91,0.00,,,0.00,Wunderground v.1.15,2013-01-29 11:10:00,
2013-01-29 06:20:00,17.0,15.1,30.07,WSW,238,0.0,0.0,92,0.00,,,0.00,Wunderground v.1.15,2013-01-29 11:20:00,
2013-01-29 06:30:00,16.4,14.0,30.07,WSW,238,0.0,0.0,90,0.00,,,0.00,Wunderground v.1.15,2013-01-29 11:30:00,
2013-01-29 06:40:00,15.2,12.8,30.06,WSW,238,0.0,2.0,90,0.00,,,0.00,Wunderground v.1.15,2013-01-29 11:40:00,
2013-01-29 06:50:00,15.4,13.2,30.07,WSW,238,1.0,1.0,91,0.00,,,0.00,Wunderground v.1.15,2013-01-29 11:50:00,
2013-01-29 07:00:00,15.9,13.7,30.07,WSW,238,0.0,0.0,91,0.00,,,0.00,Wunderground v.1.15,2013-01-29 12:00:00,
2013-01-29 07:10:00,16.4,14.2,30.07,WSW,238,0.0,0.0,91,0.00,,,0.00,Wunderground v.1.15,2013-01-29 12:10:00,
2013-01-29 07:20:00,15.9,13.5,30.08,WSW,238,1.0,1.0,90,0.00,,,0.00,Wunderground v.1.15,2013-01-29 12:20:00,
2013-01-29 07:30:00,17.2,15.0,30.08,WSW,238,0.0,0.0,91,0.00,,,0.00,Wunderground v.1.15,2013-01-29 12:30:00,
2013-01-29 07:40:00,17.2,14.8,30.07,WSW,238,0.0,0.0,90,0.00,,,0.00,Wunderground v.1.15,2013-01-29 12:40:00,
2013-01-29 07:50:00,17.8,15.6,30.09,WSW,238,0.0,0.0,91,0.00,,,0.00,Wunderground v.1.15,2013-01-29 12:50:00,
2013-01-29 08:00:00,18.8,16.6,30.09,WSW,238,0.0,0.0,91,0.00,,,0.00,Wunderground v.1.15,2013-01-29 13:00:00,
2013-01-29 08:10:00,19.5,17.3,30.09,WSW,238,0.0,0.0,91,0.00,,,0.00,Wunderground v.1.15,2013-01-29 13:10:00,
2013-01-29 08:20:00,20.6,18.4,30.10,WSW,238,0.0,0.0,91,0.00,,,0.00,Wunderground v.1.15,2013-01-29 13:20:00,
2013-01-29 08:30:00,22.4,19.6,30.10,WSW,238,1.0,3.0,89,0.00,,,0.00,Wunderground v.1.15,2013-01-29 13:30:00,
2013-01-29 08:40:00,23.9,20.3,30.11,WSW,238,1.0,1.0,86,0.00,,,0.00,Wunderground v.1.15,2013-01-29 13:40:00,
2013-01-29 08:50:00,26.4,21.4,30.11,WSW,238,0.0,0.0,81,0.00,,,0.00,Wunderground v.1.15,2013-01-29 13:50:00,
2013-01-29 09:00:00,27.3,21.3,30.11,WSW,238,0.0,0.0,78,0.00,,,0.00,Wunderground v.1.15,2013-01-29 14:00:00,
2013-01-29 09:10:00,28.1,20.9,30.11,WSW,238,0.0,0.0,74,0.00,,,0.00,Wunderground v.1.15,2013-01-29 14:10:00,
2013-01-29 09:20:00,27.9,20.0,30.11,WSW,238,0.0,0.0,72,0.00,,,0.00,Wunderground v.1.15,2013-01-29 14:20:00,
2013-01-29 09:30:00,28.8,20.2,30.11,WSW,238,0.0,0.0,70,0.00,,,0.00,Wunderground v.1.15,2013-01-29 14:30:00,
2013-01-29 09:40:00,28.4,20.2,30.12,WSW,238,1.0,1.0,71,0.00,,,0.00,Wunderground v.1.15,2013-01-29 14:40:00,
2013-01-29 09:50:00,29.3,20.7,30.12,WSW,238,0.0,0.0,70,0.00,,,0.00,Wunderground v.1.15,2013-01-29 14:50:00,
2013-01-29 10:00:00,29.4,21.2,30.12,West,270,2.0,4.0,71,0.00,,,0.00,Wunderground v.1.15,2013-01-29 15:00:00,
2013-01-29 10:10:00,29.3,21.4,30.13,West,266,4.0,4.0,72,0.00,,,0.00,Wunderground v.1.15,2013-01-29 15:10:00,
2013-01-29 10:20:00,29.8,21.9,30.14,WSW,257,3.0,3.0,72,0.00,,,0.00,Wunderground v.1.15,2013-01-29 15:20:00,
2013-01-29 10:30:00,30.1,22.2,30.14,WNW,285,3.0,5.0,72,0.00,,,0.00,Wunderground v.1.15,2013-01-29 15:30:00,
2013-01-29 10:40:00,29.8,21.9,30.14,WNW,284,5.0,6.0,72,0.00,,,0.00,Wunderground v.1.15,2013-01-29 15:40:00,
2013-01-29 10:50:00,29.5,21.9,30.14,West,271,6.0,6.0,73,0.00,,,0.00,Wunderground v.1.15,2013-01-29 15:50:00,
2013-01-29 11:00:00,29.7,22.1,30.14,West,273,5.0,5.0,73,0.00,,,0.00,Wunderground v.1.15,2013-01-29 16:00:00,
2013-01-29 11:10:00,29.5,21.9,30.15,WSW,255,6.0,11.0,73,0.00,,,0.00,Wunderground v.1.15,2013-01-29 16:10:00,
2013-01-29 11:20:00,29.5,21.9,30.15,West,264,5.0,5.0,73,0.00,,,0.00,Wunderground v.1.15,2013-01-29 16:20:00,
2013-01-29 11:30:00,30.0,22.4,30.15,West,261,5.0,7.0,73,0.00,,,0.00,Wunderground v.1.15,2013-01-29 16:30:00,
2013-01-29 11:40:00,30.3,22.4,30.14,WSW,252,6.0,6.0,72,0.00,,,0.00,Wunderground v.1.15,2013-01-29 16:40:00,
2013-01-29 11:50:00,30.7,22.4,30.14,West,269,5.0,5.0,71,0.00,,,0.00,Wunderground v.1.15,2013-01-29 16:50:00,
2013-01-29 12:00:00,31.0,22.7,30.14,WSW,258,6.0,11.0,71,0.00,,,0.00,Wunderground v.1.15,2013-01-29 17:00:00,
2013-01-29 12:10:00,31.0,23.0,30.14,West,274,7.0,7.0,72,0.00,,,0.00,Wunderground v.1.15,2013-01-29 17:10:00,
2013-01-29 12:20:00,31.6,23.3,30.14,West,269,4.0,11.0,71,0.00,,,0.00,Wunderground v.1.15,2013-01-29 17:20:00,
2013-01-29 12:30:00,31.9,23.2,30.14,WSW,255,7.0,7.0,70,0.00,,,0.00,Wunderground v.1.15,2013-01-29 17:30:00,
2013-01-29 12:40:00,32.4,23.7,30.12,West,259,5.0,6.0,70,0.00,,,0.00,Wunderground v.1.15,2013-01-29 17:40:00,
2013-01-29 12:50:00,32.8,23.7,30.12,WNW,287,4.0,6.0,69,0.00,,,0.00,Wunderground v.1.15,2013-01-29 17:50:00,
2013-01-29 13:00:00,32.7,23.3,30.12,SW,215,4.0,4.0,68,0.00,,,0.00,Wunderground v.1.15,2013-01-29 18:00:00,
2013-01-29 13:10:00,33.1,23.7,30.10,WSW,239,3.0,4.0,68,0.00,,,0.00,Wunderground v.1.15,2013-01-29 18:10:00,
2013-01-29 13:20:00,33.4,23.6,30.10,West,273,2.0,3.0,67,0.00,,,0.00,Wunderground v.1.15,2013-01-29 18:20:00,
2013-01-29 13:30:00,33.5,23.7,30.10,West,262,4.0,4.0,67,0.00,,,0.00,Wunderground v.1.15,2013-01-29 18:30:00,
2013-01-29 13:40:00,33.7,23.5,30.11,West,261,4.0,4.0,66,0.00,,,0.00,Wunderground v.1.15,2013-01-29 18:40:00,
2013-01-29 13:50:00,33.4,23.3,30.11,West,263,5.0,5.0,66,0.00,,,0.00,Wunderground v.1.15,2013-01-29 18:50:00,
2013-01-29 14:00:00,33.5,23.7,30.11,West,278,4.0,4.0,67,0.00,,,0.00,Wunderground v.1.15,2013-01-29 19:00:00,
2013-01-29 14:10:00,33.7,23.9,30.12,SW,224,5.0,5.0,67,0.00,,,0.00,Wunderground v.1.15,2013-01-29 19:10:00,
2013-01-29 14:20:00,33.8,23.6,30.13,WSW,242,5.0,5.0,66,0.00,,,0.00,Wunderground v.1.15,2013-01-29 19:20:00,
2013-01-29 14:30:00,34.0,23.8,30.13,West,275,5.0,5.0,66,0.00,,,0.00,Wunderground v.1.15,2013-01-29 19:30:00,
2013-01-29 14:40:00,34.0,24.2,30.14,West,277,4.0,4.0,67,0.00,,,0.00,Wunderground v.1.15,2013-01-29 19:40:00,
2013-01-29 14:50:00,34.0,23.5,30.14,SW,226,3.0,3.0,65,0.00,,,0.00,Wunderground v.1.15,2013-01-29 19:50:00,
2013-01-29 15:00:00,33.8,23.3,30.14,SW,226,1.0,1.0,65,0.00,,,0.00,Wunderground v.1.15,2013-01-29 20:00:00,
2013-01-29 15:10:00,33.7,23.2,30.12,SW,226,0.0,0.0,65,0.00,,,0.00,Wunderground v.1.15,2013-01-29 20:10:00,
2013-01-29 15:20:00,33.8,22.9,30.12,SW,226,0.0,0.0,64,0.00,,,0.00,Wunderground v.1.15,2013-01-29 20:20:00,
2013-01-29 15:30:00,33.7,23.2,30.12,SSE,155,0.0,2.0,65,0.00,,,0.00,Wunderground v.1.15,2013-01-29 20:30:00,
2013-01-29 15:40:00,33.1,23.3,30.12,SSE,155,1.0,1.0,67,0.00,,,0.00,Wunderground v.1.15,2013-01-29 20:40:00,
2013-01-29 15:50:00,32.9,23.1,30.12,SSE,155,0.0,0.0,67,0.00,,,0.00,Wunderground v.1.15,2013-01-29 20:50:00,
2013-01-29 16:00:00,32.9,23.1,30.12,SSE,155,0.0,0.0,67,0.00,,,0.00,Wunderground v.1.15,2013-01-29 21:00:00,
2013-01-29 16:10:00,32.8,23.4,30.12,SSE,155,0.0,0.0,68,0.00,,,0.00,Wunderground v.1.15,2013-01-29 21:10:00,
2013-01-29 16:20:00,32.5,23.1,30.12,SSE,155,0.0,0.0,68,0.00,,,0.00,Wunderground v.1.15,2013-01-29 21:20:00,
2013-01-29 16:30:00,32.1,23.1,30.12,ESE,108,1.0,2.0,69,0.00,,,0.00,Wunderground v.1.15,2013-01-29 21:30:00,
2013-01-29 16:40:00,31.5,23.8,30.12,NE,39,3.0,3.0,73,0.00,,,0.00,Wunderground v.1.15,2013-01-29 21:40:00,
2013-01-29 16:50:00,31.0,24.3,30.11,ENE,63,2.0,2.0,76,0.00,,,0.00,Wunderground v.1.15,2013-01-29 21:50:00,
2013-01-29 17:00:00,30.7,24.3,30.11,ENE,63,0.0,0.0,77,0.00,,,0.00,Wunderground v.1.15,2013-01-29 22:00:00,
2013-01-29 17:10:00,30.3,24.3,30.12,ENE,63,0.0,0.0,78,0.00,,,0.00,Wunderground v.1.15,2013-01-29 22:10:00,
2013-01-29 17:20:00,30.1,24.7,30.14,ENE,63,0.0,0.0,80,0.00,,,0.00,Wunderground v.1.15,2013-01-29 22:20:00,
2013-01-29 17:30:00,30.0,24.6,30.14,ENE,63,0.0,0.0,80,0.00,,,0.00,Wunderground v.1.15,2013-01-29 22:30:00,
2013-01-29 17:40:00,30.4,25.6,30.15,ENE,63,1.0,1.0,82,0.00,,,0.00,Wunderground v.1.15,2013-01-29 22:40:00,
2013-01-29 17:50:00,30.3,25.8,30.14,ENE,63,0.0,0.0,83,0.00,,,0.00,Wunderground v.1.15,2013-01-29 22:50:00,
2013-01-29 18:00:00,30.0,25.5,30.14,ENE,63,0.0,0.0,83,0.00,,,0.00,Wunderground v.1.15,2013-01-29 23:00:00,
2013-01-29 18:10:00,30.1,25.8,30.15,ESE,110,0.0,4.0,84,0.00,,,0.00,Wunderground v.1.15,2013-01-29 23:10:00,
2013-01-29 18:20:00,30.3,25.8,30.14,SE,130,1.0,1.0,83,0.00,,,0.00,Wunderground v.1.15,2013-01-29 23:20:00,
2013-01-29 18:30:00,29.8,25.3,30.14,SE,130,0.0,0.0,83,0.00,,,0.00,Wunderground v.1.15,2013-01-29 23:30:00,
2013-01-29 18:40:00,29.4,25.2,30.16,SE,130,0.0,0.0,84,0.00,,,0.00,Wunderground v.1.15,2013-01-29 23:40:00,
2013-01-29 18:50:00,29.7,25.7,30.17,SE,130,0.0,0.0,85,0.00,,,0.00,Wunderground v.1.15,2013-01-29 23:50:00,
2013-01-29 19:00:00,29.8,25.8,30.17,SE,130,0.0,0.0,85,0.00,,,0.00,Wunderground v.1.15,2013-01-30 00:00:00,
2013-01-29 19:10:00,29.8,25.8,30.16,SE,136,0.0,0.0,85,0.00,,,0.00,Wunderground v.1.15,2013-01-30 00:10:00,
2013-01-29 19:20:00,29.8,25.8,30.15,SE,137,0.0,0.0,85,0.00,,,0.00,Wunderground v.1.15,2013-01-30 00:20:00,
2013-01-29 19:30:00,30.0,26.0,30.15,SE,139,0.0,0.0,85,0.00,,,0.00,Wunderground v.1.15,2013-01-30 00:30:00,
2013-01-29 19:40:00,30.0,26.0,30.16,SE,139,0.0,0.0,85,0.00,,,0.00,Wunderground v.1.15,2013-01-30 00:40:00,
2013-01-29 19:50:00,30.0,26.0,30.16,SE,139,0.0,0.0,85,0.00,,,0.00,Wunderground v.1.15,2013-01-30 00:50:00,
2013-01-29 20:00:00,29.8,25.8,30.16,SE,139,0.0,0.0,85,0.00,,,0.00,Wunderground v.1.15,2013-01-30 01:00:00,
2013-01-29 20:10:00,29.7,25.7,30.17,SE,139,0.0,0.0,85,0.00,,,0.00,Wunderground v.1.15,2013-01-30 01:10:00,
2013-01-29 20:20:00,29.5,25.5,30.17,SE,139,0.0,0.0,85,0.00,,,0.00,Wunderground v.1.15,2013-01-30 01:20:00,
2013-01-29 20:30:00,29.5,25.5,30.17,SE,139,0.0,0.0,85,0.00,,,0.00,Wunderground v.1.15,2013-01-30 01:30:00,
2013-01-29 20:40:00,29.5,25.5,30.16,SE,139,0.0,0.0,85,0.00,,,0.00,Wunderground v.1.15,2013-01-30 01:40:00,
2013-01-29 20:50:00,29.7,25.7,30.15,SE,139,0.0,0.0,85,0.00,,,0.00,Wunderground v.1.15,2013-01-30 01:50:00,
2013-01-29 21:00:00,29.7,25.7,30.15,SE,139,0.0,0.0,85,0.00,,,0.00,Wunderground v.1.15,2013-01-30 02:00:00,
2013-01-29 21:10:00,29.5,25.5,30.15,SE,139,0.0,0.0,85,0.00,,,0.00,Wunderground v.1.15,2013-01-30 02:10:00,
2013-01-29 21:20:00,29.4,25.7,30.15,SE,139,1.0,1.0,86,0.00,,,0.00,Wunderground v.1.15,2013-01-30 02:20:00,
2013-01-29 21:30:00,29.8,26.1,30.15,NE,37,2.0,3.0,86,0.00,,,0.00,Wunderground v.1.15,2013-01-30 02:30:00,
2013-01-29 21:40:00,29.7,26.0,30.15,NE,37,1.0,1.0,86,0.00,,,0.00,Wunderground v.1.15,2013-01-30 02:40:00,
2013-01-29 21:50:00,29.8,26.4,30.15,NE,37,0.0,0.0,87,0.00,,,0.00,Wunderground v.1.15,2013-01-30 02:50:00,
2013-01-29 22:00:00,30.3,26.6,30.15,NE,37,0.0,0.0,86,0.00,,,0.00,Wunderground v.1.15,2013-01-30 03:00:00,
2013-01-29 22:10:00,30.3,26.6,30.15,NE,37,0.0,0.0,86,0.00,,,0.00,Wunderground v.1.15,2013-01-30 03:10:00,
2013-01-29 22:20:00,30.1,26.4,30.14,NE,37,0.0,0.0,86,0.00,,,0.00,Wunderground v.1.15,2013-01-30 03:20:00,
2013-01-29 22:30:00,30.1,26.4,30.14,NE,37,0.0,0.0,86,0.00,,,0.00,Wunderground v.1.15,2013-01-30 03:30:00,
2013-01-29 22:40:00,30.1,26.4,30.13,NE,37,0.0,0.0,86,0.00,,,0.00,Wunderground v.1.15,2013-01-30 03:40:00,
2013-01-29 22:50:00,30.1,26.7,30.14,NE,37,0.0,0.0,87,0.00,,,0.00,Wunderground v.1.15,2013-01-30 03:50:00,
2013-01-29 23:00:00,30.4,27.0,30.14,NE,37,0.0,0.0,87,0.00,,,0.00,Wunderground v.1.15,2013-01-30 04:00:00,
2013-01-29 23:10:00,30.1,26.4,30.13,NE,37,0.0,0.0,86,0.00,,,0.00,Wunderground v.1.15,2013-01-30 04:10:00,
2013-01-29 23:20:00,30.1,26.7,30.11,NE,42,0.0,2.0,87,0.00,,,0.00,Wunderground v.1.15,2013-01-30 04:20:00,
2013-01-29 23:30:00,31.3,28.2,30.11,East,93,2.0,4.0,88,0.00,,,0.00,Wunderground v.1.15,2013-01-30 04:30:00,
2013-01-29 23:40:00,31.8,28.7,30.11,ESE,106,3.0,4.0,88,0.00,,,0.00,Wunderground v.1.15,2013-01-30 04:40:00,
2013-01-29 23:50:00,31.9,28.8,30.11,ESE,107,4.0,4.0,88,0.00,,,0.00,Wunderground v.1.15,2013-01-30 04:50:00,